Location: Mohawk View
(42.7837°N, 73.7885°W)
Time: 13:18:18
(UTC+00:00)

NOSS 8 (A) - Pass Details

Date: 17 June 2021
Orbit: 369 x 1767 km, 63.3° (Epoch: 16 July)

Event Time Altitude Azimuth Distance (km) Brightness Sun altitude
Rises 01:43:24 0° 210° (SSW) 2,754 8.2 -10.4°
Reaches altitude 10° 01:45:52 10° 208° (SSW) 1,695 7.1 -10.7°
Maximum altitude 01:49:27 69° 125° (SE) 455 4.2 -11.1°
Drops below altitude 10° 01:52:26 10° 41° (NE) 1,409 7.0 -11.5°
Sets 01:54:19 0° 39° (NE) 2,233 8.1 -11.7°
